User: anonymous   Login
Location: Boleita
(10.4833°N, 66.8167°W)
Time: 19:28:20
(UTC+00:00)
Language:

SL-16 R/B - Orbit

View from above orbital plane
View from above orbital plane
View from above satellite
View from above satellite

Ground track
Ground track

The orbit is defined by the following mean orbital elements,

1 27006U          26018.39423367 +.00000000 +00000-0 +23543-4 0 00003
2 27006  99.7590 183.4716 0015191 115.3359 262.9240 13.71088848    03
Epoch (UTC): 18 January 2026 09:27:41
Eccentricity: 0.0015191
inclination: 99.7590°
perigee height: 984 km
apogee height: 1007 km
right ascension of ascending node: 183.4716°
argument of perigee: 115.3359°
revolutions per day: 13.71088848
mean anomaly at epoch: 262.9240°

The dashed part of the orbit path shows where the satellite is in the earth's shadow,  

DLR